GPS Operational
NORAD ID: 22108
Int'l Code: 1992-058A
Perigee: 19,603.3 km
Apogee: 20,773.0 km
Inclination: 56.2 °
Period: 717.9 minutes
Semi major axis: 26559 km
Launch date: September 9, 1992
Source: United States (US)
PRN: 27
Two Line Element Set (TLE):
1 22108U 92058A 13143.43369734 -.00000048 00000-0 00000+0 0 6919
2 22108 056.2316 338.1341 0220221 307.8053 078.9045 02.00577297151612
Source: AFSPC
NASA's NSSDC Master Catalog entry for NAVSTAR 27 (USA 84)